ASIASAT 7

Last updated on Tue Sep 22 2026 00:03:12 GMT+0000 (Coordinated Universal Time)

1 37933U 11069A 26264.65251981 -.00000338 00000+0 00000+0 0 9992 2 37933 0.0159 105.7780 0001741 43.6266 191.5512 1.00272711 45824
UTC large
Height (km)
Speed (km/s)
/
Latitude / Longitude
Inclination (degrees)
Orbital Period (minutes)
Azimuth
Elevation
Range (km)
Doppler Factor

Next 0 passes for location: London (51.5072 / 0.1276)

No passes found over London.
ASIASAT 7